• En Estados Unidos
  • Lista de países
  • Para 7 días
  • Temperatura del agua
  • Mapa Satelital
  • El tiempo en el mapa
  • Informadores
  • user-avatar
    Iniciar sesión

    Tiempo cada hora Annaba

    Hoy, 20 Junio, Miércoles

    Tiempo Temperatura Precipitaciones Viento Presión Humedad
    00:00 +21°C° 0 mm 2 mps 762 mmHg 91%
    01:00 +20°C° 0 mm 2 mps 762 mmHg 95%
    02:00 +20°C° 0 mm 2 mps 762 mmHg 94%
    03:00 +20°C° 0 mm 2 mps 762 mmHg 94%
    04:00 +20°C° 0 mm 2 mps 761 mmHg 93%
    05:00 +21°C° 0 mm 2 mps 762 mmHg 88%
    06:00 +23°C° 0 mm 2 mps 762 mmHg 82%
    07:00 +24°C° 0 mm 2 mps 762 mmHg 74%
    08:00 +26°C° 0 mm 2 mps 762 mmHg 67%
    09:00 +28°C° 0 mm 2 mps 762 mmHg 59%
    10:00 +29°C° 0 mm 2 mps 762 mmHg 51%
    11:00 +30°C° 0 mm 2 mps 762 mmHg 49%
    12:00 +31°C° 0 mm 3 mps 762 mmHg 47%
    13:00 +32°C° 0 mm 4 mps 761 mmHg 44%
    14:00 +32°C° 0 mm 4 mps 761 mmHg 45%
    15:00 +32°C° 0 mm 4 mps 761 mmHg 47%
    16:00 +31°C° 0 mm 3 mps 761 mmHg 48%
    17:00 +30°C° 0 mm 3 mps 761 mmHg 51%
    18:00 +29°C° 0 mm 2 mps 761 mmHg 55%
    19:00 +28°C° 0 mm 2 mps 761 mmHg 58%
    20:00 +27°C° 0,1 mm 1 mps 761 mmHg 64%
    21:00 +26°C° 0,1 mm 1 mps 761 mmHg 69%
    22:00 +24°C° 0,1 mm 1 mps 762 mmHg 75%
    23:00 +24°C° 0 mm 1 mps 762 mmHg 75%

    Mañana, 21 Junio, Jueves

    Tiempo Temperatura Precipitaciones Viento Presión Humedad
    00:00 +24°C° 0 mm 1 mps 761 mmHg 75%
    01:00 +24°C° 0 mm 1 mps 761 mmHg 75%
    02:00 +24°C° 0 mm 1 mps 761 mmHg 74%
    03:00 +23°C° 0 mm 1 mps 761 mmHg 74%
    04:00 +23°C° 0 mm 1 mps 760 mmHg 74%
    05:00 +24°C° 0 mm 1 mps 760 mmHg 70%
    06:00 +25°C° 0 mm 1 mps 761 mmHg 66%
    07:00 +26°C° 0 mm 1 mps 761 mmHg 63%
    08:00 +28°C° 0 mm 1 mps 761 mmHg 56%
    09:00 +30°C° 0 mm 1 mps 761 mmHg 49%
    10:00 +32°C° 0 mm 1 mps 761 mmHg 43%
    11:00 +34°C° 0 mm 2 mps 760 mmHg 41%
    12:00 +34°C° 0 mm 3 mps 760 mmHg 39%
    13:00 +35°C° 0 mm 4 mps 760 mmHg 37%
    14:00 +35°C° 0 mm 4 mps 760 mmHg 38%
    15:00 +34°C° 0 mm 4 mps 760 mmHg 39%
    16:00 +34°C° 0 mm 4 mps 759 mmHg 40%
    17:00 +33°C° 0 mm 4 mps 759 mmHg 44%
    18:00 +31°C° 0 mm 3 mps 759 mmHg 48%
    19:00 +30°C° 0 mm 3 mps 759 mmHg 51%
    20:00 +29°C° 0,1 mm 3 mps 760 mmHg 56%
    21:00 +27°C° 0,1 mm 2 mps 760 mmHg 61%
    22:00 +26°C° 0,1 mm 2 mps 760 mmHg 66%
    23:00 +26°C° 0 mm 2 mps 760 mmHg 66%

    Pasado mañana, 22 Junio, Viernes

    Tiempo Temperatura Precipitaciones Viento Presión Humedad
    00:00 +26°C° 0 mm 2 mps 760 mmHg 66%
    01:00 +25°C° 0 mm 1 mps 760 mmHg 67%
    02:00 +25°C° 0 mm 1 mps 760 mmHg 68%
    03:00 +25°C° 0 mm 1 mps 759 mmHg 69%
    04:00 +24°C° 0 mm 1 mps 759 mmHg 70%
    05:00 +25°C° 0 mm 1 mps 759 mmHg 67%
    06:00 +26°C° 0 mm 1 mps 760 mmHg 65%
    07:00 +27°C° 0 mm 1 mps 760 mmHg 62%
    08:00 +29°C° 0 mm 1 mps 760 mmHg 56%
    09:00 +31°C° 0 mm 1 mps 760 mmHg 50%
    10:00 +32°C° 0 mm 2 mps 760 mmHg 44%
    11:00 +34°C° 0 mm 2 mps 760 mmHg 43%
    12:00 +35°C° 0 mm 3 mps 760 mmHg 41%
    13:00 +35°C° 0 mm 4 mps 760 mmHg 39%
    14:00 +35°C° 0 mm 4 mps 759 mmHg 40%
    15:00 +34°C° 0 mm 4 mps 759 mmHg 41%
    16:00 +34°C° 0 mm 4 mps 759 mmHg 43%
    17:00 +33°C° 0 mm 3 mps 759 mmHg 46%
    18:00 +30°C° 0 mm 3 mps 759 mmHg 49%
    19:00 +29°C° 0 mm 2 mps 759 mmHg 51%
    20:00 +28°C° 0 mm 2 mps 760 mmHg 57%
    21:00 +26°C° 0 mm 1 mps 760 mmHg 63%
    22:00 +24°C° 0 mm 1 mps 761 mmHg 69%
    23:00 +24°C° 0 mm 1 mps 761 mmHg 69%

    23 Junio, Sábado

    Tiempo Temperatura Precipitaciones Viento Presión Humedad
    00:00 +24°C° 0 mm 1 mps 761 mmHg 70%
    01:00 +23°C° 0 mm 1 mps 761 mmHg 70%
    02:00 +23°C° 0 mm 1 mps 761 mmHg 69%
    03:00 +23°C° 0 mm 1 mps 760 mmHg 68%
    04:00 +23°C° 0 mm 2 mps 760 mmHg 66%
    05:00 +24°C° 0 mm 1 mps 760 mmHg 62%
    06:00 +25°C° 0 mm 1 mps 760 mmHg 57%
    07:00 +26°C° 0 mm 1 mps 760 mmHg 52%
    08:00 +28°C° 0 mm 1 mps 761 mmHg 47%
    09:00 +30°C° 0 mm 2 mps 761 mmHg 41%
    10:00 +32°C° 0 mm 2 mps 761 mmHg 36%
    11:00 +34°C° 0 mm 3 mps 761 mmHg 35%
    12:00 +35°C° 0 mm 3 mps 760 mmHg 35%
    13:00 +35°C° 0 mm 4 mps 760 mmHg 34%
    14:00 +35°C° 0 mm 4 mps 760 mmHg 36%
    15:00 +35°C° 0 mm 4 mps 760 mmHg 37%
    16:00 +34°C° 0 mm 4 mps 759 mmHg 38%
    17:00 +33°C° 0 mm 3 mps 760 mmHg 42%
    18:00 +31°C° 0 mm 3 mps 760 mmHg 46%
    19:00 +29°C° 0 mm 2 mps 760 mmHg 50%
    20:00 +28°C° 0 mm 2 mps 760 mmHg 55%
    21:00 +26°C° 0 mm 1 mps 760 mmHg 61%
    22:00 +23°C° 0 mm 0 mps 761 mmHg 66%
    23:00 +25°C° 0 mm 1 mps 760 mmHg 64%

    24 Junio, Domingo

    Tiempo Temperatura Precipitaciones Viento Presión Humedad
    00:00 +25°C° 0 mm 1 mps 760 mmHg 63%
    01:00 +25°C° 0 mm 2 mps 760 mmHg 61%
    02:00 +24°C° 0 mm 1 mps 760 mmHg 62%
    03:00 +24°C° 0 mm 1 mps 759 mmHg 62%
    04:00 +24°C° 0 mm 1 mps 759 mmHg 62%
    05:00 +25°C° 0 mm 1 mps 759 mmHg 61%
    06:00 +25°C° 0 mm 1 mps 759 mmHg 60%
    07:00 +24°C° 0 mm 0 mps 760 mmHg 59%
    08:00 +28°C° 0 mm 1 mps 760 mmHg 53%
    09:00 +30°C° 0 mm 1 mps 760 mmHg 47%
    10:00 +32°C° 0 mm 2 mps 760 mmHg 41%
    11:00 +34°C° 0 mm 2 mps 760 mmHg 40%
    12:00 +34°C° 0 mm 3 mps 759 mmHg 39%
    13:00 +35°C° 0 mm 3 mps 759 mmHg 38%
    14:00 +35°C° 0 mm 3 mps 759 mmHg 38%
    15:00 +35°C° 0 mm 3 mps 759 mmHg 38%
    16:00 +34°C° 0 mm 3 mps 759 mmHg 37%
    17:00 +33°C° 0 mm 3 mps 759 mmHg 42%
    18:00 +31°C° 0 mm 3 mps 759 mmHg 47%
    19:00 +29°C° 0 mm 2 mps 759 mmHg 52%
    20:00 +28°C° 0 mm 2 mps 760 mmHg 59%
    21:00 +26°C° 0 mm 1 mps 760 mmHg 67%
    22:00 +22°C° 0 mm 0 mps 760 mmHg 74%
    23:00 +22°C° 0 mm 0 mps 760 mmHg 74%

    25 Junio, Lunes

    Tiempo Temperatura Precipitaciones Viento Presión Humedad
    00:00 +22°C° 0 mm 0 mps 759 mmHg 74%
    01:00 +22°C° 0 mm 0 mps 759 mmHg 74%
    02:00 +21°C° 0 mm 0 mps 759 mmHg 74%
    03:00 +21°C° 0 mm 0 mps 759 mmHg 74%
    04:00 +21°C° 0 mm 0 mps 758 mmHg 74%
    05:00 +22°C° 0 mm 0 mps 759 mmHg 72%
    06:00 +24°C° 0 mm 1 mps 759 mmHg 70%
    07:00 +25°C° 0 mm 1 mps 759 mmHg 67%
    08:00 +27°C° 0 mm 1 mps 759 mmHg 61%
    09:00 +29°C° 0 mm 2 mps 759 mmHg 54%
    10:00 +30°C° 0 mm 2 mps 759 mmHg 47%
    11:00 +31°C° 0 mm 3 mps 759 mmHg 44%
    12:00 +33°C° 0 mm 4 mps 759 mmHg 41%
    13:00 +33°C° 0 mm 4 mps 759 mmHg 38%
    14:00 +33°C° 0 mm 4 mps 759 mmHg 38%
    15:00 +33°C° 0 mm 4 mps 759 mmHg 38%
    16:00 +32°C° 0 mm 4 mps 759 mmHg 38%
    17:00 +30°C° 0 mm 3 mps 759 mmHg 42%
    18:00 +29°C° 0 mm 3 mps 759 mmHg 46%
    19:00 +28°C° 0 mm 2 mps 759 mmHg 51%
    20:00 +26°C° 0 mm 2 mps 760 mmHg 58%
    21:00 +25°C° 0 mm 1 mps 760 mmHg 64%
    22:00 +23°C° 0 mm 1 mps 760 mmHg 71%
    23:00 +23°C° 0 mm 1 mps 760 mmHg 72%
    Mostrar más